Time,TemperatureF,DewpointF,PressureIn,WindDirection,WindDirectionDegrees,WindSpeedMPH,WindSpeedGustMPH,Humidity,HourlyPrecipIn,Conditions,Clouds,dailyrainin,SoftwareType,DateUTC
2013-03-26 00:00:00,24.8,1.0,30.04,SW,231,15.4,15.4,35,0.00,,CLR,0.00,VWS V14.01,2013-03-26 06:00:00,
2013-03-26 00:05:00,25.0,0.6,30.04,SW,230,11.9,17.4,34,0.00,,CLR,0.00,VWS V14.01,2013-03-26 06:05:00,
2013-03-26 00:10:00,25.0,1.2,30.01,WSW,242,10.5,17.4,35,0.00,,CLR,0.00,VWS V14.01,2013-03-26 06:10:00,
2013-03-26 00:15:00,24.4,0.7,30.01,SW,226,11.0,17.4,35,0.00,,CLR,0.00,VWS V14.01,2013-03-26 06:15:00,
2013-03-26 00:20:00,24.3,0.6,30.01,SW,218,8.1,17.4,35,0.00,,CLR,0.00,VWS V14.01,2013-03-26 06:20:00,
2013-03-26 00:25:00,24.4,0.7,30.01,SW,222,10.1,17.4,35,0.00,,CLR,0.00,VWS V14.01,2013-03-26 06:25:00,
2013-03-26 00:30:00,24.4,0.7,30.01,WSW,238,10.1,17.4,35,0.00,,CLR,0.00,VWS V14.01,2013-03-26 06:30:00,
2013-03-26 00:35:00,24.3,0.6,30.01,SW,233,14.1,17.4,35,0.00,,CLR,0.00,VWS V14.01,2013-03-26 06:35:00,
2013-03-26 00:40:00,24.1,0.4,30.01,SW,221,10.1,17.4,35,0.00,,CLR,0.00,VWS V14.01,2013-03-26 06:40:00,
2013-03-26 00:45:00,24.4,0.7,30.01,SW,227,11.9,17.4,35,0.00,,CLR,0.00,VWS V14.01,2013-03-26 06:45:00,
2013-03-26 00:50:00,24.8,1.0,30.01,WSW,242,13.2,17.4,35,0.00,,CLR,0.00,VWS V14.01,2013-03-26 06:50:00,
2013-03-26 00:55:00,25.2,0.8,30.01,WSW,242,11.9,17.4,34,0.00,,CLR,0.00,VWS V14.01,2013-03-26 06:55:00,
2013-03-26 01:00:00,25.0,0.6,30.01,WSW,251,10.5,17.4,34,0.00,,CLR,0.00,VWS V14.01,2013-03-26 07:00:00,
2013-03-26 01:05:00,25.0,0.6,30.01,WSW,239,12.3,12.8,34,0.00,,CLR,0.00,VWS V14.01,2013-03-26 07:05:00,
2013-03-26 01:10:00,24.4,0.7,30.01,WSW,238,13.6,13.6,35,0.00,,CLR,0.00,VWS V14.01,2013-03-26 07:10:00,
2013-03-26 01:15:00,24.1,0.4,30.01,SW,230,12.8,14.5,35,0.00,,CLR,0.00,VWS V14.01,2013-03-26 07:15:00,
2013-03-26 01:20:00,24.1,0.4,30.01,WSW,243,13.2,14.5,35,0.00,,CLR,0.00,VWS V14.01,2013-03-26 07:20:00,
2013-03-26 01:25:00,24.4,0.7,30.01,WSW,247,11.0,14.5,35,0.00,,CLR,0.00,VWS V14.01,2013-03-26 07:25:00,
2013-03-26 01:30:00,24.8,0.4,30.01,SW,216,8.3,15.0,34,0.00,,CLR,0.00,VWS V14.01,2013-03-26 07:30:00,
2013-03-26 01:35:00,24.3,-0.1,30.01,SSW,209,7.6,8.7,34,0.00,,CLR,0.00,VWS V14.01,2013-03-26 07:35:00,
2013-03-26 01:40:00,24.6,0.9,30.01,SW,232,7.6,13.2,35,0.00,,CLR,0.00,VWS V14.01,2013-03-26 07:40:00,
2013-03-26 01:45:00,24.4,0.7,30.01,SW,232,10.5,15.0,35,0.00,,CLR,0.00,VWS V14.01,2013-03-26 07:45:00,
2013-03-26 01:50:00,24.6,0.9,30.01,SW,225,8.3,15.0,35,0.00,,CLR,0.00,VWS V14.01,2013-03-26 07:50:00,
2013-03-26 01:55:00,25.0,0.6,30.01,SW,218,12.8,15.0,34,0.00,,CLR,0.00,VWS V14.01,2013-03-26 07:55:00,
2013-03-26 02:00:00,24.8,0.4,30.01,SSW,195,11.0,15.0,34,0.00,,CLR,0.00,VWS V14.01,2013-03-26 08:00:00,
2013-03-26 02:05:00,24.4,0.1,30.01,SW,226,11.9,11.9,34,0.00,,CLR,0.00,VWS V14.01,2013-03-26 08:05:00,
2013-03-26 02:10:00,24.8,0.4,30.01,SSW,205,11.9,13.6,34,0.00,,CLR,0.00,VWS V14.01,2013-03-26 08:10:00,
2013-03-26 02:15:00,24.8,0.4,30.01,SSW,213,13.2,13.6,34,0.00,,CLR,0.00,VWS V14.01,2013-03-26 08:15:00,
2013-03-26 02:20:00,24.6,0.3,30.01,SSW,198,10.1,13.6,34,0.00,,CLR,0.00,VWS V14.01,2013-03-26 08:20:00,
2013-03-26 02:25:00,25.0,-0.1,30.01,SW,223,8.7,13.6,33,0.00,,CLR,0.00,VWS V14.01,2013-03-26 08:25:00,
2013-03-26 02:30:00,24.6,0.3,30.01,SW,226,8.1,13.6,34,0.00,,CLR,0.00,VWS V14.01,2013-03-26 08:30:00,
2013-03-26 02:35:00,24.8,0.4,30.01,SW,232,11.9,12.8,34,0.00,,CLR,0.00,VWS V14.01,2013-03-26 08:35:00,
2013-03-26 02:40:00,24.8,0.4,30.01,WSW,242,12.3,13.2,34,0.00,,CLR,0.00,VWS V14.01,2013-03-26 08:40:00,
2013-03-26 02:45:00,25.2,0.1,30.01,WSW,238,12.3,15.0,33,0.00,,CLR,0.00,VWS V14.01,2013-03-26 08:45:00,
2013-03-26 02:50:00,24.6,0.3,30.01,SW,233,10.1,15.0,34,0.00,,CLR,0.00,VWS V14.01,2013-03-26 08:50:00,
2013-03-26 02:55:00,25.0,0.6,30.01,SW,236,12.3,15.0,34,0.00,,CLR,0.00,VWS V14.01,2013-03-26 08:55:00,
2013-03-26 03:00:00,24.6,0.3,30.01,SW,229,10.5,15.0,34,0.00,,CLR,0.00,VWS V14.01,2013-03-26 09:00:00,
2013-03-26 03:05:00,24.8,0.4,30.01,SW,232,10.5,14.5,34,0.00,,CLR,0.00,VWS V14.01,2013-03-26 09:05:00,
2013-03-26 03:10:00,24.8,0.4,29.98,SW,234,10.5,14.5,34,0.00,,CLR,0.00,VWS V14.01,2013-03-26 09:10:00,
2013-03-26 03:15:00,24.6,0.3,29.98,WSW,241,11.0,14.5,34,0.00,,CLR,0.00,VWS V14.01,2013-03-26 09:15:00,
2013-03-26 03:20:00,24.4,0.7,29.98,SW,230,11.0,14.5,35,0.00,,CLR,0.00,VWS V14.01,2013-03-26 09:20:00,
2013-03-26 03:25:00,24.1,0.4,29.98,WSW,240,10.5,15.4,35,0.00,,CLR,0.00,VWS V14.01,2013-03-26 09:25:00,
2013-03-26 03:30:00,24.1,0.4,29.98,SW,227,11.0,15.4,35,0.00,,CLR,0.00,VWS V14.01,2013-03-26 09:30:00,
2013-03-26 03:35:00,24.4,0.1,29.98,SW,224,12.3,13.2,34,0.00,,CLR,0.00,VWS V14.01,2013-03-26 09:35:00,
2013-03-26 03:40:00,24.6,0.9,29.98,SW,224,12.3,13.6,35,0.00,,CLR,0.00,VWS V14.01,2013-03-26 09:40:00,
2013-03-26 03:45:00,24.6,0.3,29.98,SW,228,7.6,13.6,34,0.00,,CLR,0.00,VWS V14.01,2013-03-26 09:45:00,
2013-03-26 03:50:00,24.6,0.3,29.98,SSW,212,7.6,13.6,34,0.00,,CLR,0.00,VWS V14.01,2013-03-26 09:50:00,
2013-03-26 03:55:00,25.3,0.9,29.98,SW,219,8.3,13.6,34,0.00,,CLR,0.00,VWS V14.01,2013-03-26 09:55:00,
2013-03-26 04:00:00,25.5,1.1,29.98,WSW,238,12.3,13.6,34,0.00,,CLR,0.00,VWS V14.01,2013-03-26 10:00:00,
2013-03-26 04:05:00,25.5,1.1,29.98,SSW,192,8.7,10.5,34,0.00,,CLR,0.00,VWS V14.01,2013-03-26 10:05:00,
2013-03-26 04:10:00,25.2,0.8,29.98,SW,236,5.8,10.5,34,0.00,,CLR,0.00,VWS V14.01,2013-03-26 10:10:00,
2013-03-26 04:15:00,25.3,0.9,29.98,SW,235,8.7,12.3,34,0.00,,CLR,0.00,VWS V14.01,2013-03-26 10:15:00,
2013-03-26 04:20:00,25.0,0.6,29.98,WSW,238,8.3,12.3,34,0.00,,CLR,0.00,VWS V14.01,2013-03-26 10:20:00,
2013-03-26 04:25:00,25.3,0.9,29.98,SW,233,8.1,12.3,34,0.00,,CLR,0.00,VWS V14.01,2013-03-26 10:25:00,
2013-03-26 04:30:00,25.5,1.1,29.98,WSW,239,8.7,12.3,34,0.00,,CLR,0.00,VWS V14.01,2013-03-26 10:30:00,
2013-03-26 04:35:00,25.7,1.2,29.98,SW,233,11.0,12.8,34,0.00,,CLR,0.00,VWS V14.01,2013-03-26 10:35:00,
2013-03-26 04:40:00,25.3,0.9,29.98,WSW,238,10.5,13.2,34,0.00,,CLR,0.00,VWS V14.01,2013-03-26 10:40:00,
2013-03-26 04:45:00,25.5,1.1,29.98,SW,225,13.2,13.2,34,0.00,,CLR,0.00,VWS V14.01,2013-03-26 10:45:00,
2013-03-26 04:50:00,25.7,1.9,29.98,SW,226,8.7,13.2,35,0.00,,CLR,0.00,VWS V14.01,2013-03-26 10:50:00,
2013-03-26 04:55:00,26.1,2.2,29.98,SW,235,8.3,13.2,35,0.00,,CLR,0.00,VWS V14.01,2013-03-26 10:55:00,
2013-03-26 05:00:00,26.4,2.5,29.98,SW,229,8.7,13.2,35,0.00,,CLR,0.00,VWS V14.01,2013-03-26 11:00:00,
2013-03-26 05:05:00,26.6,2.7,29.98,SW,218,9.6,10.5,35,0.00,,CLR,0.00,VWS V14.01,2013-03-26 11:05:00,
2013-03-26 05:10:00,26.4,2.5,29.98,SSW,199,8.7,11.0,35,0.00,,CLR,0.00,VWS V14.01,2013-03-26 11:10:00,
2013-03-26 05:15:00,26.4,2.5,29.98,SSW,212,8.3,12.3,35,0.00,,CLR,0.00,VWS V14.01,2013-03-26 11:15:00,
2013-03-26 05:20:00,26.1,2.2,29.98,SSW,193,6.3,12.3,35,0.00,,CLR,0.00,VWS V14.01,2013-03-26 11:20:00,
2013-03-26 05:25:00,26.1,2.2,29.98,SW,225,8.3,12.3,35,0.00,,CLR,0.00,VWS V14.01,2013-03-26 11:25:00,
2013-03-26 05:30:00,26.4,2.5,29.98,SW,228,8.1,12.3,35,0.00,,CLR,0.00,VWS V14.01,2013-03-26 11:30:00,
2013-03-26 05:35:00,26.2,2.3,29.98,SSW,197,5.8,8.7,35,0.00,,CLR,0.00,VWS V14.01,2013-03-26 11:35:00,
2013-03-26 05:40:00,26.1,2.2,29.98,SW,222,5.8,8.7,35,0.00,,CLR,0.00,VWS V14.01,2013-03-26 11:40:00,
2013-03-26 05:45:00,26.2,2.9,29.98,SSW,212,7.6,10.1,36,0.00,,CLR,0.00,VWS V14.01,2013-03-26 11:45:00,
2013-03-26 05:50:00,26.4,2.5,29.98,SSW,211,7.6,11.0,35,0.00,,CLR,0.00,VWS V14.01,2013-03-26 11:50:00,
2013-03-26 05:55:00,26.2,2.3,29.98,South,188,6.3,11.0,35,0.00,,CLR,0.00,VWS V14.01,2013-03-26 11:55:00,
2013-03-26 06:00:00,25.7,2.5,29.98,SW,235,8.7,11.0,36,0.00,,CLR,0.00,VWS V14.01,2013-03-26 12:00:00,
2013-03-26 06:05:00,26.1,2.8,29.98,WSW,241,11.0,12.8,36,0.00,,CLR,0.00,VWS V14.01,2013-03-26 12:05:00,
2013-03-26 06:10:00,26.2,2.9,29.98,WSW,238,10.5,12.8,36,0.00,,CLR,0.00,VWS V14.01,2013-03-26 12:10:00,
2013-03-26 06:15:00,27.0,3.6,29.98,SW,226,8.7,12.8,36,0.00,,CLR,0.00,VWS V14.01,2013-03-26 12:15:00,
2013-03-26 06:20:00,26.1,3.4,29.98,SW,222,5.4,12.8,37,0.00,,CLR,0.00,VWS V14.01,2013-03-26 12:20:00,
2013-03-26 06:25:00,25.9,3.8,29.98,SW,234,4.0,12.8,38,0.00,,CLR,0.00,VWS V14.01,2013-03-26 12:25:00,
2013-03-26 06:30:00,25.7,3.6,29.98,SSW,211,5.8,12.8,38,0.00,,CLR,0.00,VWS V14.01,2013-03-26 12:30:00,
2013-03-26 06:35:00,26.2,4.1,29.98,SW,235,8.1,8.1,38,0.00,,CLR,0.00,VWS V14.01,2013-03-26 12:35:00,
2013-03-26 06:40:00,26.6,5.0,29.98,SW,233,8.1,8.3,39,0.00,,CLR,0.00,VWS V14.01,2013-03-26 12:40:00,
2013-03-26 06:45:00,26.6,4.4,29.98,WSW,251,6.3,8.3,38,0.00,,CLR,0.00,VWS V14.01,2013-03-26 12:45:00,
2013-03-26 06:50:00,26.8,4.6,29.98,WSW,243,8.1,10.1,38,0.00,,CLR,0.00,VWS V14.01,2013-03-26 12:50:00,
2013-03-26 06:55:00,27.0,5.9,29.98,WSW,241,8.7,10.1,40,0.00,,CLR,0.00,VWS V14.01,2013-03-26 12:55:00,
2013-03-26 07:00:00,27.0,5.3,29.98,SW,225,9.6,12.3,39,0.00,,CLR,0.00,VWS V14.01,2013-03-26 13:00:00,
2013-03-26 07:05:00,27.3,5.6,29.98,WSW,245,10.1,13.2,39,0.00,,FEW120,0.00,VWS V14.01,2013-03-26 13:05:00,
2013-03-26 07:10:00,27.5,6.4,29.98,WSW,246,8.1,13.2,40,0.00,,FEW120,0.00,VWS V14.01,2013-03-26 13:10:00,
2013-03-26 07:15:00,27.5,6.4,29.98,WSW,239,7.6,13.2,40,0.00,,FEW120,0.00,VWS V14.01,2013-03-26 13:15:00,
2013-03-26 07:20:00,27.9,6.7,29.98,SW,232,7.6,13.2,40,0.00,,FEW120,0.00,VWS V14.01,2013-03-26 13:20:00,
2013-03-26 07:25:00,28.2,7.0,29.98,SW,234,6.3,13.2,40,0.00,,FEW120,0.00,VWS V14.01,2013-03-26 13:25:00,
2013-03-26 07:30:00,28.2,6.4,29.98,West,268,5.8,13.2,39,0.00,,FEW120,0.00,VWS V14.01,2013-03-26 13:30:00,
2013-03-26 07:35:00,29.5,5.2,29.98,SW,226,3.6,5.4,35,0.00,,FEW120,0.00,VWS V14.01,2013-03-26 13:35:00,
2013-03-26 07:40:00,29.7,6.6,29.98,WNW,282,4.0,5.4,37,0.00,,FEW120,0.00,VWS V14.01,2013-03-26 13:40:00,
2013-03-26 07:45:00,29.3,6.3,29.98,WSW,250,2.7,6.7,37,0.00,,FEW120,0.00,VWS V14.01,2013-03-26 13:45:00,
2013-03-26 07:50:00,28.9,7.7,29.98,WSW,248,3.6,6.7,40,0.00,,FEW120,0.00,VWS V14.01,2013-03-26 13:50:00,
2013-03-26 07:55:00,28.8,6.9,29.98,West,264,3.6,7.2,39,0.00,,FEW120,0.00,VWS V14.01,2013-03-26 13:55:00,
2013-03-26 08:00:00,29.3,7.4,29.98,West,272,6.3,7.6,39,0.00,,FEW120,0.00,VWS V14.01,2013-03-26 14:00:00,
2013-03-26 08:05:00,29.7,8.3,29.98,West,265,4.0,6.3,40,0.00,,FEW120,0.00,VWS V14.01,2013-03-26 14:05:00,
2013-03-26 08:10:00,29.7,6.6,30.01,West,271,2.7,6.3,37,0.00,,BKN085,0.00,VWS V14.01,2013-03-26 14:10:00,
2013-03-26 08:15:00,29.7,6.6,30.01,NW,310,4.0,6.3,37,0.00,,BKN085,0.00,VWS V14.01,2013-03-26 14:15:00,
2013-03-26 08:20:00,30.0,5.7,30.01,NNW,336,3.6,6.3,35,0.00,,BKN085,0.00,VWS V14.01,2013-03-26 14:20:00,
2013-03-26 08:25:00,30.6,6.2,30.01,NNW,337,6.3,6.3,35,0.00,,BKN085,0.00,VWS V14.01,2013-03-26 14:25:00,
2013-03-26 08:30:00,30.9,7.1,30.01,NNW,329,4.5,6.3,36,0.00,,BKN085,0.00,VWS V14.01,2013-03-26 14:30:00,
2013-03-26 08:35:00,31.6,6.5,30.01,NW,326,3.6,4.9,34,0.00,,BKN085,0.00,VWS V14.01,2013-03-26 14:35:00,
2013-03-26 08:40:00,32.9,8.9,30.01,WSW,251,3.6,5.8,36,0.00,,BKN085,0.00,VWS V14.01,2013-03-26 14:40:00,
2013-03-26 08:45:00,34.0,9.9,30.01,West,268,4.5,5.8,36,0.00,,BKN085,0.00,VWS V14.01,2013-03-26 14:45:00,
2013-03-26 08:50:00,36.3,11.3,30.01,NNE,21,4.0,5.8,35,0.00,,BKN085,0.00,VWS V14.01,2013-03-26 14:50:00,
2013-03-26 08:55:00,37.8,11.3,30.01,NW,325,0.0,5.8,33,0.00,,BKN085,0.00,VWS V14.01,2013-03-26 14:55:00,
2013-03-26 09:00:00,41.5,13.2,30.01,NE,55,0.0,5.8,31,0.00,,BKN085,0.00,VWS V14.01,2013-03-26 15:00:00,
2013-03-26 09:05:00,46.8,16.2,30.01,NE,55,0.0,0.0,29,0.00,,BKN085,0.00,VWS V14.01,2013-03-26 15:05:00,
2013-03-26 09:10:00,46.4,14.2,29.98,SE,132,0.0,0.0,27,0.00,,OVC085,0.00,VWS V14.01,2013-03-26 15:10:00,
2013-03-26 09:15:00,41.7,11.0,29.98,SE,132,0.0,0.0,28,0.00,,OVC085,0.00,VWS V14.01,2013-03-26 15:15:00,
2013-03-26 09:20:00,44.1,13.1,29.98,SE,131,0.0,0.0,28,0.00,,OVC085,0.00,VWS V14.01,2013-03-26 15:20:00,
2013-03-26 09:25:00,43.7,12.8,30.01,ESE,121,0.0,0.0,28,0.00,,OVC085,0.00,VWS V14.01,2013-03-26 15:25:00,
2013-03-26 09:30:00,48.7,15.4,30.01,NNE,21,0.0,0.0,26,0.00,,OVC085,0.00,VWS V14.01,2013-03-26 15:30:00,
2013-03-26 09:35:00,52.2,18.3,30.01,NNW,345,0.0,0.0,26,0.00,,OVC085,0.00,VWS V14.01,2013-03-26 15:35:00,
2013-03-26 09:40:00,46.6,9.8,29.98,East,99,3.1,3.6,22,0.00,,OVC085,0.00,VWS V14.01,2013-03-26 15:40:00,
2013-03-26 09:45:00,46.4,9.6,29.98,ESE,106,4.0,4.0,22,0.00,,OVC085,0.00,VWS V14.01,2013-03-26 15:45:00,
2013-03-26 09:50:00,44.4,10.8,29.98,East,83,0.0,4.0,25,0.00,,OVC085,0.00,VWS V14.01,2013-03-26 15:50:00,
2013-03-26 09:55:00,40.3,10.6,30.01,East,79,3.6,4.0,29,0.00,,OVC085,0.00,VWS V14.01,2013-03-26 15:55:00,
2013-03-26 10:00:00,40.3,10.6,30.01,East,91,2.7,4.9,29,0.00,,OVC085,0.00,VWS V14.01,2013-03-26 16:00:00,
2013-03-26 10:04:00,38.5,9.0,30.01,ESE,106,3.6,5.4,29,0.00,,OVC085,0.00,VWS V14.01,2013-03-26 16:04:00,
2013-03-26 10:09:00,41.4,11.5,30.01,East,100,3.1,5.4,29,0.00,,OVC085,0.00,VWS V14.01,2013-03-26 16:09:00,
2013-03-26 10:14:00,42.8,12.0,30.01,ESE,103,3.6,5.4,28,0.00,,OVC085,0.00,VWS V14.01,2013-03-26 16:14:00,
2013-03-26 10:19:00,41.7,11.0,30.01,ESE,123,4.9,5.4,28,0.00,,OVC085,0.00,VWS V14.01,2013-03-26 16:19:00,
2013-03-26 10:24:00,42.8,12.0,30.01,East,98,4.9,6.3,28,0.00,,OVC085,0.00,VWS V14.01,2013-03-26 16:24:00,
2013-03-26 10:30:00,40.3,8.1,30.01,ESE,118,5.8,6.7,26,0.00,,OVC085,0.00,VWS V14.01,2013-03-26 16:30:00,
2013-03-26 10:35:00,40.5,10.7,30.01,ENE,74,5.8,6.3,29,0.00,,OVC085,0.00,VWS V14.01,2013-03-26 16:35:00,
2013-03-26 10:40:00,40.5,9.9,30.01,ESE,118,5.8,6.3,28,0.00,,OVC085,0.00,VWS V14.01,2013-03-26 16:40:00,
2013-03-26 10:45:00,41.7,11.0,30.01,ENE,61,5.4,8.3,28,0.00,,OVC085,0.00,VWS V14.01,2013-03-26 16:45:00,
2013-03-26 10:50:00,39.9,9.5,30.01,SE,124,6.3,8.3,28,0.00,,OVC085,0.00,VWS V14.01,2013-03-26 16:50:00,
2013-03-26 10:55:00,40.8,10.2,30.01,ESE,103,3.1,8.3,28,0.00,,OVC085,0.00,VWS V14.01,2013-03-26 16:55:00,
2013-03-26 11:00:00,41.0,10.4,30.01,East,83,3.6,8.3,28,0.00,,OVC085,0.00,VWS V14.01,2013-03-26 17:00:00,
2013-03-26 11:05:00,39.7,10.1,30.01,ESE,117,5.4,6.3,29,0.00,,OVC085,0.00,VWS V14.01,2013-03-26 17:05:00,
2013-03-26 11:09:00,39.7,10.1,30.01,SE,129,4.0,7.6,29,0.00,,OVC075,0.00,VWS V14.01,2013-03-26 17:09:00,
2013-03-26 11:14:00,39.4,9.8,30.01,East,98,3.6,7.6,29,0.00,,OVC075,0.00,VWS V14.01,2013-03-26 17:14:00,
2013-03-26 11:19:00,39.0,9.5,30.01,ESE,105,5.4,8.3,29,0.00,,OVC075,0.00,VWS V14.01,2013-03-26 17:19:00,
2013-03-26 11:24:00,39.0,9.5,30.01,East,92,3.1,8.3,29,0.00,,OVC075,0.00,VWS V14.01,2013-03-26 17:24:00,
2013-03-26 11:29:00,39.6,9.9,30.01,East,92,5.4,8.3,29,0.00,,OVC075,0.00,VWS V14.01,2013-03-26 17:29:00,
2013-03-26 11:34:00,39.4,9.8,30.01,East,95,5.8,6.3,29,0.00,,OVC075,0.00,VWS V14.01,2013-03-26 17:34:00,
2013-03-26 11:39:00,39.9,10.2,30.01,ENE,69,5.8,8.3,29,0.00,,OVC075,0.00,VWS V14.01,2013-03-26 17:39:00,
2013-03-26 11:44:00,39.7,10.9,30.01,East,86,3.6,8.3,30,0.00,,OVC075,0.00,VWS V14.01,2013-03-26 17:44:00,
2013-03-26 11:49:00,39.2,10.4,30.01,East,90,4.9,8.3,30,0.00,,OVC075,0.00,VWS V14.01,2013-03-26 17:49:00,
2013-03-26 11:54:00,39.9,11.0,30.01,NE,53,5.4,8.3,30,0.00,,OVC075,0.00,VWS V14.01,2013-03-26 17:54:00,
2013-03-26 11:59:00,38.8,10.8,30.01,East,80,4.0,8.3,31,0.00,,OVC075,0.00,VWS V14.01,2013-03-26 17:59:00,
2013-03-26 12:04:00,40.1,11.2,30.01,East,85,2.7,7.6,30,0.00,,OVC075,0.00,VWS V14.01,2013-03-26 18:04:00,
2013-03-26 12:09:00,39.4,10.5,30.01,East,96,5.4,8.3,30,0.00,,FEW075,0.00,VWS V14.01,2013-03-26 18:09:00,
2013-03-26 12:14:00,39.7,10.9,30.01,East,79,8.3,8.3,30,0.00,,FEW075,0.00,VWS V14.01,2013-03-26 18:14:00,
2013-03-26 12:19:00,40.3,11.3,30.01,ENE,67,3.6,8.3,30,0.00,,FEW075,0.00,VWS V14.01,2013-03-26 18:19:00,
2013-03-26 12:24:00,40.8,12.5,30.01,NE,47,5.4,8.3,31,0.00,,FEW075,0.00,VWS V14.01,2013-03-26 18:24:00,
2013-03-26 12:29:00,39.9,11.0,30.01,ENE,70,3.6,8.3,30,0.00,,FEW075,0.00,VWS V14.01,2013-03-26 18:29:00,
2013-03-26 12:34:00,40.8,11.8,30.01,East,81,3.6,4.9,30,0.00,,FEW075,0.00,VWS V14.01,2013-03-26 18:34:00,
2013-03-26 12:39:00,41.2,11.4,29.98,East,97,0.0,4.9,29,0.00,,FEW075,0.00,VWS V14.01,2013-03-26 18:39:00,
2013-03-26 12:44:00,40.5,11.5,29.98,ESE,109,4.0,5.4,30,0.00,,FEW075,0.00,VWS V14.01,2013-03-26 18:44:00,
2013-03-26 12:49:00,40.1,11.2,29.98,ESE,115,2.2,5.8,30,0.00,,FEW075,0.00,VWS V14.01,2013-03-26 18:49:00,
2013-03-26 12:54:00,40.8,11.8,29.98,SE,126,5.4,6.3,30,0.00,,FEW075,0.00,VWS V14.01,2013-03-26 18:54:00,
2013-03-26 12:59:00,40.8,11.8,29.98,East,92,3.1,6.3,30,0.00,,FEW075,0.00,VWS V14.01,2013-03-26 18:59:00,
2013-03-26 13:04:00,41.9,12.0,29.98,NNE,12,4.0,6.3,29,0.00,,FEW075,0.00,VWS V14.01,2013-03-26 19:04:00,
2013-03-26 13:09:00,41.2,12.1,29.98,ENE,63,4.9,6.3,30,0.00,,CLR,0.00,VWS V14.01,2013-03-26 19:09:00,
2013-03-26 13:14:00,41.2,11.4,29.98,NNW,335,5.4,8.3,29,0.00,,CLR,0.00,VWS V14.01,2013-03-26 19:14:00,
2013-03-26 13:19:00,41.0,12.0,29.98,East,92,3.6,8.3,30,0.00,,CLR,0.00,VWS V14.01,2013-03-26 19:19:00,
2013-03-26 13:24:00,40.6,11.6,29.98,East,96,4.9,8.3,30,0.00,,CLR,0.00,VWS V14.01,2013-03-26 19:24:00,
2013-03-26 13:29:00,41.9,12.7,29.98,East,93,0.0,8.3,30,0.00,,CLR,0.00,VWS V14.01,2013-03-26 19:29:00,
2013-03-26 13:34:00,41.7,11.8,29.98,North,0,2.7,5.4,29,0.00,,CLR,0.00,VWS V14.01,2013-03-26 19:34:00,
2013-03-26 13:39:00,42.4,13.2,29.98,NE,34,0.0,6.3,30,0.00,,CLR,0.00,VWS V14.01,2013-03-26 19:39:00,
2013-03-26 13:44:00,42.1,12.9,29.98,East,99,2.7,6.3,30,0.00,,CLR,0.00,VWS V14.01,2013-03-26 19:44:00,
2013-03-26 13:49:00,42.8,13.5,29.98,North,7,5.4,6.3,30,0.00,,CLR,0.00,VWS V14.01,2013-03-26 19:49:00,
2013-03-26 13:54:00,41.7,12.6,29.98,NNW,338,4.0,6.3,30,0.00,,CLR,0.00,VWS V14.01,2013-03-26 19:54:00,
2013-03-26 13:59:00,42.4,14.0,29.98,North,357,2.2,6.3,31,0.00,,CLR,0.00,VWS V14.01,2013-03-26 19:59:00,
2013-03-26 14:04:00,42.4,12.4,29.98,NW,315,2.7,3.6,29,0.00,,CLR,0.00,VWS V14.01,2013-03-26 20:04:00,
2013-03-26 14:09:00,40.6,11.6,29.98,NNW,343,5.8,5.8,30,0.00,,SCT075,0.00,VWS V14.01,2013-03-26 20:09:00,
2013-03-26 14:14:00,41.5,13.2,29.98,NW,317,3.6,8.1,31,0.00,,SCT075,0.00,VWS V14.01,2013-03-26 20:14:00,
2013-03-26 14:19:00,40.8,12.5,29.98,NW,326,5.8,8.1,31,0.00,,SCT075,0.00,VWS V14.01,2013-03-26 20:19:00,
2013-03-26 14:24:00,39.9,11.8,29.98,NW,318,5.4,8.1,31,0.00,,SCT075,0.00,VWS V14.01,2013-03-26 20:24:00,
2013-03-26 14:29:00,40.8,12.5,29.98,NNW,341,3.6,8.1,31,0.00,,SCT075,0.00,VWS V14.01,2013-03-26 20:29:00,
2013-03-26 14:34:00,41.2,12.1,29.98,NNE,12,4.9,6.3,30,0.00,,SCT075,0.00,VWS V14.01,2013-03-26 20:34:00,
2013-03-26 14:39:00,42.1,12.9,29.98,NNE,26,5.4,6.3,30,0.00,,SCT075,0.00,VWS V14.01,2013-03-26 20:39:00,
2013-03-26 14:44:00,43.2,13.8,29.98,ENE,66,3.6,7.6,30,0.00,,SCT075,0.00,VWS V14.01,2013-03-26 20:44:00,
2013-03-26 14:49:00,43.7,14.3,29.98,North,8,3.6,7.6,30,0.00,,SCT075,0.00,VWS V14.01,2013-03-26 20:49:00,
2013-03-26 14:54:00,43.5,13.4,29.98,NNW,338,3.6,7.6,29,0.00,,SCT075,0.00,VWS V14.01,2013-03-26 20:54:00,
2013-03-26 14:59:00,42.8,12.8,29.98,NW,326,3.6,7.6,29,0.00,,SCT075,0.00,VWS V14.01,2013-03-26 20:59:00,
2013-03-26 15:04:00,43.5,13.4,29.98,NNW,341,4.0,6.3,29,0.00,,SCT075,0.00,VWS V14.01,2013-03-26 21:04:00,
2013-03-26 15:09:00,43.5,14.2,29.98,NW,326,5.8,7.6,30,0.00,,BKN075,0.00,VWS V14.01,2013-03-26 21:09:00,
2013-03-26 15:14:00,47.3,16.7,29.98,NE,52,4.9,7.6,29,0.00,,BKN075,0.00,VWS V14.01,2013-03-26 21:14:00,
2013-03-26 15:19:00,46.8,15.4,29.98,NNE,24,3.6,7.6,28,0.00,,BKN075,0.00,VWS V14.01,2013-03-26 21:19:00,
2013-03-26 15:24:00,45.3,14.1,29.98,North,3,3.6,7.6,28,0.00,,BKN075,0.00,VWS V14.01,2013-03-26 21:24:00,
2013-03-26 15:29:00,46.0,14.8,29.98,North,357,5.4,7.6,28,0.00,,BKN075,0.00,VWS V14.01,2013-03-26 21:29:00,
2013-03-26 15:34:00,45.9,14.6,29.98,North,357,4.0,7.6,28,0.00,,BKN075,0.00,VWS V14.01,2013-03-26 21:34:00,
2013-03-26 15:39:00,47.7,15.3,29.98,North,11,3.6,7.6,27,0.00,,BKN075,0.00,VWS V14.01,2013-03-26 21:39:00,
2013-03-26 15:44:00,49.6,17.0,29.98,North,11,4.0,7.6,27,0.00,,BKN075,0.00,VWS V14.01,2013-03-26 21:44:00,
2013-03-26 15:49:00,50.4,17.7,29.98,NNE,27,5.4,7.6,27,0.00,,BKN075,0.00,VWS V14.01,2013-03-26 21:49:00,
2013-03-26 15:54:00,48.0,15.6,29.98,East,88,3.1,7.6,27,0.00,,BKN075,0.00,VWS V14.01,2013-03-26 21:54:00,
2013-03-26 15:59:00,46.4,14.2,29.98,East,93,3.1,7.6,27,0.00,,BKN075,0.00,VWS V14.01,2013-03-26 21:59:00,
2013-03-26 16:04:00,52.3,18.5,29.98,NE,43,0.0,5.8,26,0.00,,BKN075,0.00,VWS V14.01,2013-03-26 22:04:00,
2013-03-26 16:09:00,48.4,16.0,29.98,East,98,2.7,5.8,27,0.00,,SCT075,0.00,VWS V14.01,2013-03-26 22:09:00,
2013-03-26 16:14:00,52.5,15.8,29.98,North,4,3.6,5.8,23,0.00,,SCT075,0.00,VWS V14.01,2013-03-26 22:14:00,
2013-03-26 16:19:00,53.1,19.1,29.98,NNE,26,2.7,5.8,26,0.00,,SCT075,0.00,VWS V14.01,2013-03-26 22:19:00,
2013-03-26 16:24:00,50.7,15.3,29.98,NE,38,2.2,5.8,24,0.00,,SCT075,0.00,VWS V14.01,2013-03-26 22:24:00,
2013-03-26 16:29:00,51.8,15.2,29.98,NNW,330,5.4,5.8,23,0.00,,SCT075,0.00,VWS V14.01,2013-03-26 22:29:00,
2013-03-26 16:34:00,48.4,13.3,29.98,NW,324,4.0,4.9,24,0.00,,SCT075,0.00,VWS V14.01,2013-03-26 22:34:00,
2013-03-26 16:39:00,48.4,13.3,29.98,NNW,346,0.0,5.4,24,0.00,,SCT075,0.00,VWS V14.01,2013-03-26 22:39:00,
2013-03-26 16:44:00,49.8,14.5,29.98,NNW,334,3.6,5.4,24,0.00,,SCT075,0.00,VWS V14.01,2013-03-26 22:44:00,
2013-03-26 16:49:00,48.2,13.1,29.98,NNW,344,2.7,5.4,24,0.00,,SCT075,0.00,VWS V14.01,2013-03-26 22:49:00,
2013-03-26 16:54:00,49.1,15.7,29.98,NW,318,4.9,5.4,26,0.00,,SCT075,0.00,VWS V14.01,2013-03-26 22:54:00,
2013-03-26 17:00:00,46.9,14.7,29.98,North,353,4.0,6.7,27,0.00,,SCT075,0.00,VWS V14.01,2013-03-26 23:00:00,
2013-03-26 17:05:00,46.4,14.2,29.98,NNW,344,2.7,6.3,27,0.00,,CLR,0.00,VWS V14.01,2013-03-26 23:05:00,
2013-03-26 17:10:00,48.6,13.4,29.98,NNW,332,2.7,6.3,24,0.00,,CLR,0.00,VWS V14.01,2013-03-26 23:10:00,
2013-03-26 17:15:00,49.3,15.9,29.98,NW,322,2.7,6.3,26,0.00,,CLR,0.00,VWS V14.01,2013-03-26 23:15:00,
2013-03-26 17:20:00,48.9,13.7,29.98,NW,322,2.7,6.3,24,0.00,,CLR,0.00,VWS V14.01,2013-03-26 23:20:00,
2013-03-26 17:25:00,48.4,15.1,29.98,NNW,342,2.2,6.3,26,0.00,,CLR,0.00,VWS V14.01,2013-03-26 23:25:00,
2013-03-26 17:30:00,49.1,15.7,29.98,North,353,3.6,6.3,26,0.00,,CLR,0.00,VWS V14.01,2013-03-26 23:30:00,
2013-03-26 17:35:00,48.6,13.4,29.98,North,2,2.2,3.6,24,0.00,,CLR,0.00,VWS V14.01,2013-03-26 23:35:00,
2013-03-26 17:40:00,47.3,15.0,29.98,North,0,0.0,3.6,27,0.00,,CLR,0.00,VWS V14.01,2013-03-26 23:40:00,
2013-03-26 17:45:00,48.7,15.4,29.98,NNW,339,2.7,3.6,26,0.00,,CLR,0.00,VWS V14.01,2013-03-26 23:45:00,
2013-03-26 17:50:00,49.3,14.0,29.98,NNW,339,2.2,3.6,24,0.00,,CLR,0.00,VWS V14.01,2013-03-26 23:50:00,
2013-03-26 17:55:00,49.6,14.3,29.98,North,353,0.0,3.6,24,0.00,,CLR,0.00,VWS V14.01,2013-03-26 23:55:00,
2013-03-26 18:00:00,49.3,14.0,29.98,NNW,343,0.0,3.6,24,0.00,,CLR,0.00,VWS V14.01,2013-03-27 00:00:00,
2013-03-26 18:05:00,49.8,14.5,29.98,NNW,343,0.0,0.0,24,0.00,,CLR,0.00,VWS V14.01,2013-03-27 00:05:00,
2013-03-26 18:10:00,50.7,15.3,29.98,NNW,343,0.0,0.0,24,0.00,,CLR,0.00,VWS V14.01,2013-03-27 00:10:00,
2013-03-26 18:15:00,50.7,15.3,29.98,NNW,343,0.0,0.0,24,0.00,,CLR,0.00,VWS V14.01,2013-03-27 00:15:00,
2013-03-26 18:20:00,50.0,14.6,29.98,NNW,343,0.0,0.0,24,0.00,,CLR,0.00,VWS V14.01,2013-03-27 00:20:00,
2013-03-26 18:25:00,50.2,14.8,29.98,NNW,343,0.0,0.0,24,0.00,,CLR,0.00,VWS V14.01,2013-03-27 00:25:00,
2013-03-26 18:30:00,49.1,13.9,29.98,NNW,343,0.0,0.0,24,0.00,,CLR,0.00,VWS V14.01,2013-03-27 00:30:00,
2013-03-26 18:35:00,47.8,12.8,29.98,NNW,343,0.0,0.0,24,0.00,,CLR,0.00,VWS V14.01,2013-03-27 00:35:00,
2013-03-26 18:40:00,46.0,13.9,29.98,NNW,343,0.0,0.0,27,0.00,,CLR,0.00,VWS V14.01,2013-03-27 00:40:00,
2013-03-26 18:45:00,43.2,12.3,29.98,NNW,343,0.0,0.0,28,0.00,,CLR,0.00,VWS V14.01,2013-03-27 00:45:00,
2013-03-26 18:50:00,41.2,10.6,29.98,NNW,329,0.0,0.0,28,0.00,,CLR,0.00,VWS V14.01,2013-03-27 00:50:00,
2013-03-26 18:55:00,38.1,14.2,29.98,WSW,247,4.9,4.9,37,0.00,,CLR,0.00,VWS V14.01,2013-03-27 00:55:00,
2013-03-26 19:00:00,35.1,14.3,29.98,WSW,248,5.4,5.4,42,0.00,,CLR,0.00,VWS V14.01,2013-03-27 01:00:00,
2013-03-26 19:05:00,33.8,13.7,29.98,West,259,4.0,5.4,43,0.00,,CLR,0.00,VWS V14.01,2013-03-27 01:05:00,
2013-03-26 19:10:00,33.3,14.2,29.98,WSW,248,4.9,5.8,45,0.00,,CLR,0.00,VWS V14.01,2013-03-27 01:10:00,
2013-03-26 19:15:00,32.5,14.1,29.98,WSW,240,7.6,8.1,46,0.00,,CLR,0.00,VWS V14.01,2013-03-27 01:15:00,
2013-03-26 19:20:00,32.0,15.5,29.98,WSW,243,5.8,8.1,50,0.00,,CLR,0.00,VWS V14.01,2013-03-27 01:20:00,
2013-03-26 19:25:00,30.4,14.9,29.98,WSW,245,6.3,8.1,52,0.00,,CLR,0.00,VWS V14.01,2013-03-27 01:25:00,
2013-03-26 19:30:00,30.0,14.5,29.98,SW,236,5.4,8.1,52,0.00,,CLR,0.00,VWS V14.01,2013-03-27 01:30:00,
2013-03-26 19:35:00,30.6,14.6,29.98,SW,231,5.4,6.3,51,0.00,,CLR,0.00,VWS V14.01,2013-03-27 01:35:00,
2013-03-26 19:40:00,30.6,14.6,29.98,SW,231,5.8,6.3,51,0.00,,CLR,0.00,VWS V14.01,2013-03-27 01:40:00,
2013-03-26 19:45:00,31.1,14.2,29.98,SW,227,5.8,6.3,49,0.00,,CLR,0.00,VWS V14.01,2013-03-27 01:45:00,
2013-03-26 19:50:00,30.9,14.5,29.98,SW,228,5.8,6.7,50,0.00,,CLR,0.00,VWS V14.01,2013-03-27 01:50:00,
2013-03-26 19:55:00,31.3,13.9,29.98,SW,232,5.8,6.7,48,0.00,,CLR,0.00,VWS V14.01,2013-03-27 01:55:00,
2013-03-26 20:00:00,31.1,13.7,29.98,WSW,237,6.7,8.1,48,0.00,,CLR,0.00,VWS V14.01,2013-03-27 02:00:00,
2013-03-26 20:05:00,30.6,13.7,29.98,SW,234,6.3,7.6,49,0.00,,CLR,0.00,VWS V14.01,2013-03-27 02:05:00,
2013-03-26 20:10:00,30.2,14.3,29.98,WSW,245,5.8,7.6,51,0.00,,CLR,0.00,VWS V14.01,2013-03-27 02:10:00,
2013-03-26 20:15:00,30.2,13.8,29.98,SW,230,6.3,7.6,50,0.00,,CLR,0.00,VWS V14.01,2013-03-27 02:15:00,
2013-03-26 20:20:00,30.2,14.3,29.98,WSW,243,6.3,7.6,51,0.00,,CLR,0.00,VWS V14.01,2013-03-27 02:20:00,
2013-03-26 20:24:00,30.7,14.3,29.98,SW,235,8.3,10.1,50,0.00,,CLR,0.00,VWS V14.01,2013-03-27 02:24:00,
2013-03-26 20:30:00,31.8,13.9,29.98,SW,235,8.7,10.5,47,0.00,,CLR,0.00,VWS V14.01,2013-03-27 02:30:00,
2013-03-26 20:35:00,31.6,13.2,29.98,SW,218,7.6,11.9,46,0.00,,CLR,0.00,VWS V14.01,2013-03-27 02:35:00,
2013-03-26 20:40:00,31.1,13.2,30.01,SW,236,6.7,14.1,47,0.00,,CLR,0.00,VWS V14.01,2013-03-27 02:40:00,
2013-03-26 20:45:00,30.0,12.7,30.01,SSW,206,4.0,14.1,48,0.00,,CLR,0.00,VWS V14.01,2013-03-27 02:45:00,
2013-03-26 20:50:00,28.8,12.5,30.01,SW,234,8.1,14.1,50,0.00,,CLR,0.00,VWS V14.01,2013-03-27 02:50:00,
2013-03-26 20:55:00,29.8,13.9,30.01,WSW,245,8.7,14.1,51,0.00,,CLR,0.00,VWS V14.01,2013-03-27 02:55:00,
2013-03-26 21:00:00,30.7,13.9,30.01,WSW,239,8.7,14.1,49,0.00,,CLR,0.00,VWS V14.01,2013-03-27 03:00:00,
2013-03-26 21:05:00,31.3,13.4,30.01,SW,229,7.6,11.0,47,0.00,,CLR,0.00,VWS V14.01,2013-03-27 03:05:00,
2013-03-26 21:09:00,31.6,13.2,30.01,WSW,241,8.3,13.2,46,0.00,,CLR,0.00,VWS V14.01,2013-03-27 03:09:00,
2013-03-26 21:14:00,32.2,13.2,30.01,WSW,242,10.1,13.2,45,0.00,,CLR,0.00,VWS V14.01,2013-03-27 03:14:00,
2013-03-26 21:19:00,32.0,13.6,30.01,SW,235,8.7,13.2,46,0.00,,CLR,0.00,VWS V14.01,2013-03-27 03:19:00,
2013-03-26 21:24:00,31.8,13.4,30.01,WSW,239,10.1,13.2,46,0.00,,CLR,0.00,VWS V14.01,2013-03-27 03:24:00,
2013-03-26 21:29:00,31.5,13.1,30.01,WSW,238,9.2,13.2,46,0.00,,CLR,0.00,VWS V14.01,2013-03-27 03:29:00,
2013-03-26 21:34:00,31.3,13.4,30.01,WSW,246,8.1,12.3,47,0.00,,CLR,0.00,VWS V14.01,2013-03-27 03:34:00,
2013-03-26 21:39:00,31.1,13.7,30.01,WSW,238,8.7,13.2,48,0.00,,CLR,0.00,VWS V14.01,2013-03-27 03:39:00,
2013-03-26 21:44:00,31.1,13.2,30.01,WSW,257,6.3,13.6,47,0.00,,CLR,0.00,VWS V14.01,2013-03-27 03:44:00,
2013-03-26 21:49:00,31.1,13.7,30.01,WSW,245,10.1,13.6,48,0.00,,CLR,0.00,VWS V14.01,2013-03-27 03:49:00,
2013-03-26 21:54:00,30.6,13.2,30.01,WSW,249,11.0,13.6,48,0.00,,CLR,0.00,VWS V14.01,2013-03-27 03:54:00,
2013-03-26 21:59:00,30.4,13.1,30.01,WSW,240,8.3,13.6,48,0.00,,CLR,0.00,VWS V14.01,2013-03-27 03:59:00,
2013-03-26 22:00:00,30.4,13.1,30.01,WSW,253,13.2,13.6,48,0.00,,CLR,0.00,VWS V14.01,2013-03-27 04:00:00,
2013-03-26 22:05:00,30.2,13.4,30.01,WSW,240,7.2,11.0,49,0.00,,CLR,0.00,VWS V14.01,2013-03-27 04:05:00,
2013-03-26 22:10:00,30.4,13.1,30.01,WSW,248,8.7,11.4,48,0.00,,CLR,0.00,VWS V14.01,2013-03-27 04:10:00,
2013-03-26 22:15:00,30.2,13.4,30.01,SW,234,8.7,11.4,49,0.00,,CLR,0.00,VWS V14.01,2013-03-27 04:15:00,
2013-03-26 22:20:00,30.2,13.4,30.01,West,259,10.5,11.4,49,0.00,,CLR,0.00,VWS V14.01,2013-03-27 04:20:00,
2013-03-26 22:25:00,30.0,13.2,30.01,WSW,243,11.0,12.8,49,0.00,,CLR,0.00,VWS V14.01,2013-03-27 04:25:00,
2013-03-26 22:30:00,30.0,13.2,30.01,SW,226,9.2,12.8,49,0.00,,CLR,0.00,VWS V14.01,2013-03-27 04:30:00,
2013-03-26 22:35:00,30.0,13.2,30.01,WSW,239,10.5,11.4,49,0.00,,CLR,0.00,VWS V14.01,2013-03-27 04:35:00,
2013-03-26 22:40:00,30.2,12.9,30.01,SW,231,8.3,12.3,48,0.00,,CLR,0.00,VWS V14.01,2013-03-27 04:40:00,
2013-03-26 22:45:00,29.8,12.6,30.01,WSW,240,10.5,12.3,48,0.00,,CLR,0.00,VWS V14.01,2013-03-27 04:45:00,
2013-03-26 22:50:00,29.5,12.7,30.01,SW,236,5.4,12.3,49,0.00,,CLR,0.00,VWS V14.01,2013-03-27 04:50:00,
2013-03-26 22:55:00,30.2,12.9,30.01,SW,236,10.5,12.3,48,0.00,,CLR,0.00,VWS V14.01,2013-03-27 04:55:00,
2013-03-26 23:00:00,29.7,12.4,30.01,SW,232,8.3,12.3,48,0.00,,CLR,0.00,VWS V14.01,2013-03-27 05:00:00,
2013-03-26 23:05:00,29.7,12.4,30.01,WSW,248,8.3,12.3,48,0.00,,CLR,0.00,VWS V14.01,2013-03-27 05:05:00,
2013-03-26 23:10:00,30.2,12.4,30.01,WSW,245,10.1,12.8,47,0.00,,CLR,0.00,VWS V14.01,2013-03-27 05:10:00,
2013-03-26 23:15:00,29.5,12.7,30.01,WSW,243,9.2,12.8,49,0.00,,CLR,0.00,VWS V14.01,2013-03-27 05:15:00,
2013-03-26 23:20:00,29.3,13.0,30.01,WSW,237,10.1,12.8,50,0.00,,CLR,0.00,VWS V14.01,2013-03-27 05:20:00,
2013-03-26 23:25:00,29.3,13.0,30.01,WSW,256,10.5,13.2,50,0.00,,CLR,0.00,VWS V14.01,2013-03-27 05:25:00,
2013-03-26 23:30:00,29.3,13.0,30.01,WSW,240,7.6,13.2,50,0.00,,CLR,0.00,VWS V14.01,2013-03-27 05:30:00,
2013-03-26 23:35:00,29.1,12.8,30.01,WSW,252,11.0,12.3,50,0.00,,CLR,0.00,VWS V14.01,2013-03-27 05:35:00,
2013-03-26 23:40:00,28.9,12.6,30.01,WSW,238,10.5,12.8,50,0.00,,CLR,0.00,VWS V14.01,2013-03-27 05:40:00,
2013-03-26 23:45:00,29.1,12.8,30.01,WSW,241,8.7,13.2,50,0.00,,CLR,0.00,VWS V14.01,2013-03-27 05:45:00,
2013-03-26 23:50:00,29.3,12.5,30.01,West,263,10.1,13.2,49,0.00,,CLR,0.00,VWS V14.01,2013-03-27 05:50:00,
2013-03-26 23:55:00,28.9,12.2,30.01,WSW,255,4.9,13.2,49,0.00,,CLR,0.00,VWS V14.01,2013-03-27 05:55:00,